This is the latest recevied weather packets stored in our database for station/object K5BOU. If no packets are shown the sender has not sent any weather packets the latest 10 day(s).
| Time | Temp. | Humidity | Pressure | Rain* | Wind** | Luminosity | Snow |
|---|---|---|---|---|---|---|---|
| 1777927128 | 27.22° C | 69% | 1010.3 hPa | 0 mm | - | 369 W/m² | - |
| 1777926824 | 27.22° C | 69% | 1010.2 hPa | 0 mm | - | 287 W/m² | - |
| 1777926520 | 27.78° C | 69% | 1010.3 hPa | 0 mm | - | 308 W/m² | - |
| 1777926218 | 27.22° C | 70% | 1010.2 hPa | 0 mm | - | 386 W/m² | - |
| 1777925914 | 27.22° C | 68% | 1010.4 hPa | 0 mm | - | 395 W/m² | - |
| 1777925612 | 26.67° C | 69% | 1010.7 hPa | 0 mm | - | 371 W/m² | - |
| 1777925309 | 27.22° C | 68% | 1010.7 hPa | 0 mm | - | 243 W/m² | - |
| 1777925005 | 27.22° C | 69% | 1010.6 hPa | 0 mm | - | 341 W/m² | - |
| 1777924701 | 27.22° C | 67% | 1010.7 hPa | 0 mm | - | 228 W/m² | - |
| 1777924397 | 27.22° C | 68% | 1010.8 hPa | 0 mm | - | 716 W/m² | - |
| 1777924094 | 27.22° C | 68% | 1011 hPa | 0 mm | - | 402 W/m² | - |
| 1777923790 | 27.22° C | 69% | 1010.9 hPa | 0 mm | - | 352 W/m² | - |
| 1777923487 | 27.78° C | 67% | 1011.1 hPa | 0 mm | - | 582 W/m² | - |
| 1777923184 | 27.22° C | 68% | 1011.1 hPa | 0 mm | - | 317 W/m² | - |
| 1777922883 | 26.67° C | 69% | 1011.2 hPa | 0 mm | - | 285 W/m² | - |
| 1777922580 | 26.67° C | 68% | 1011.2 hPa | 0 mm | - | 897 W/m² | - |
| 1777922279 | 26.67° C | 70% | 1011.2 hPa | 0 mm | - | 294 W/m² | - |
| 1777921975 | 26.67° C | 67% | 1011.3 hPa | 0 mm | - | 274 W/m² | - |
| 1777921671 | 27.22° C | 67% | 1011.2 hPa | 0 mm | - | 331 W/m² | - |
| 1777921367 | 27.22° C | 68% | 1011.2 hPa | 0 mm | - | 414 W/m² | - |
| 1777921064 | 26.67° C | 68% | 1011.4 hPa | 0 mm | - | 663 W/m² | - |
| 1777920761 | 26.67° C | 69% | 1011.6 hPa | 0 mm | - | 935 W/m² | - |
| 1777920457 | 27.22° C | 68% | 1011.8 hPa | 0 mm | - | 360 W/m² | - |
| 1777920153 | 27.22° C | 66% | 1011.7 hPa | 0 mm | - | 888 W/m² | - |
| 1777919849 | 26.67° C | 68% | 1011.5 hPa | 0 mm | - | 605 W/m² | - |
* Rain latest hour (hover to see other rain measurements)
** Current wind speed in m/s (hover to see current wind gust speed)